GW5218 Weather Reports


time (UTC)temp
F
wind
direction
speed
knots
gust
knots
rain 1hr
in
rain 24hr
in
rain mn
in
humidity
%
barometer
mb
20260510203014 84 143 0.9 4.3 0.00 0.00 0.00 60 1015.8
20260510201517 84 104 1.7 4.3 0.00 0.00 0.00 59 1015.7
20260510200021 84 115 1.7 4.3 0.00 0.00 0.00 60 1015.4
20260510194507 85 142 1.7 4.3 0.00 0.00 0.00 58 1015.6
20260510193008 84 121 1.7 3.5 0.00 0.00 0.00 60 1015.6
20260510191518 84 133 0.9 2.6 0.00 0.00 0.00 61 1015.5
20260510190026 84 124 0.9 3.5 0.00 0.00 0.00 60 1015.7
20260510184524 84 122 1.7 4.3 0.00 0.00 0.00 59 1015.8
20260510183017 84 120 0.9 4.3 0.00 0.00 0.00 63 1016.0
20260510181514 84 104 0.9 3.5 0.00 0.00 0.00 60 1016.1
20260510180015 85 121 1.7 3.5 0.00 0.00 0.00 62 1016.2
20260510174520 87 164 0.9 2.6 0.00 0.00 0.00 58 1016.3
20260510173026 85 216 0.9 4.3 0.00 0.00 0.00 62 1016.6
20260510171511 84 130 0.9 4.3 0.00 0.00 0.00 63 1016.7
20260510170014 83 66 0.9 3.5 0.00 0.00 0.00 65 1016.7
20260510164529 83 321 0.0 2.6 0.00 0.00 0.00 61 1016.9
20260510163022 83 94 0.9 2.6 0.00 0.00 0.00 64 1017.1
20260510161526 82 79 0.9 2.6 0.00 0.00 0.00 68 1017.0
20260510160011 80 151 0.9 1.7 0.00 0.00 0.00 70 1016.8
20260510154516 79 46 0.9 2.6 0.00 0.00 0.00 72 1016.7
20260510153026 78 305 0.0 1.7 0.00 0.00 0.00 76 1016.7
20260510151522 76 103 0.0 1.7 0.00 0.00 0.00 80 1016.7
20260510150026 75 147 0.9 1.7 0.00 0.00 0.00 82 1017.0
20260510144510 72 156 0.0 1.7 0.00 0.00 0.00 90 1017.1
20260510143016 70 37 0.0 2.6 0.00 0.00 0.00 91 1017.1
20260510141519 70 104 0.0 1.7 0.00 0.00 0.00 90 1017.2
20260510140024 69 31 0.0 2.6 0.00 0.00 0.00 91 1017.0
20260510134526 69 79 0.9 1.7 0.00 0.00 0.00 92 1017.0
20260510133016 68 277 0.0 1.7 0.00 0.00 0.00 92 1016.7
20260510131517 67 106 0.9 1.7 0.00 0.00 0.00 92 1016.5
20260510130029 67 62 0.0 0.9 0.00 0.00 0.00 92 1016.3
20260510124538 66 8 0.0 1.7 0.00 0.00 0.00 92 1016.2
20260510123028 66 293 0.0 1.7 0.00 0.00 0.00 92 1016.1
20260510121516 66 352 0.0 0.9 0.00 0.00 0.00 92 1016.0
20260510120020 65 309 0.0 0.9 0.00 0.00 0.00 92 1015.7
20260510114526 65 58 0.0 0.9 0.00 0.00 0.00 92 1015.4
20260510113032 65 55 0.0 0.9 0.00 0.00 0.00 92 1015.0
20260510111547 65 73 0.0 0.9 0.00 0.00 0.00 92 1014.6
20260510110018 65 354 0.0 0.9 0.00 0.00 0.00 92 1014.5
20260510104524 65 354 0.0 0.9 0.00 0.00 0.00 92 1014.1
20260510103006 65 354 0.0 0.9 0.00 0.00 0.00 92 1013.9
20260510101508 65 82 0.0 0.9 0.00 0.00 0.00 92 1013.6
20260510100013 65 288 0.0 0.9 0.00 0.00 0.00 92 1013.6
20260510094519 65 1 0.0 0.9 0.00 0.00 0.00 92 1013.5
20260510093004 65 285 0.0 0.9 0.00 0.00 0.00 91 1013.5
20260510091508 65 318 0.0 1.7 0.00 0.00 0.00 91 1013.4
20260510090013 65 298 0.0 0.9 0.00 0.01 0.00 91 1013.3
20260510084517 65 280 0.0 0.9 0.00 0.01 0.00 91 1013.2
20260510083023 66 125 0.0 0.9 0.00 0.01 0.00 91 1013.3
20260510081509 66 126 0.0 0.9 0.00 0.01 0.00 91 1013.1
20260510080008 66 287 0.0 0.9 0.00 0.02 0.00 91 1013.1
20260510074512 66 297 0.0 1.7 0.00 0.02 0.00 91 1012.9
20260510073027 66 169 0.0 0.9 0.00 0.02 0.00 91 1012.7
20260510071533 66 306 0.0 0.9 0.00 0.02 0.00 91 1012.9
20260510070010 66 309 0.0 0.9 0.00 0.02 0.00 91 1013.0
20260510064534 66 314 0.0 0.0 0.00 0.02 0.00 91 1013.0
20260510063018 66 314 0.0 0.0 0.00 0.02 0.00 91 1013.1
20260510061532 66 326 0.0 0.9 0.00 0.02 0.00 92 1013.3
20260510060032 66 2 0.0 0.9 0.00 0.02 0.00 92 1013.3
20260510054505 66 345 0.0 0.9 0.00 0.02 0.00 91 1013.1
20260510053011 66 345 0.0 0.0 0.00 0.02 0.00 91 1013.3
20260510051516 66 345 0.0 0.9 0.00 0.02 0.00 91 1013.4
20260510050020 67 345 0.0 0.0 0.00 0.02 0.00 91 1013.2
20260510044531 67 345 0.0 0.0 0.00 0.02 0.02 91 1013.4
20260510043008 67 345 0.0 0.0 0.00 0.02 0.02 91 1013.3
20260510041515 67 345 0.0 0.9 0.00 0.02 0.02 91 1013.1
20260510040018 68 345 0.0 0.9 0.00 0.02 0.02 91 1013.6
20260510034524 68 346 0.0 0.9 0.00 0.02 0.02 91 1014.0
20260510033026 68 345 0.0 0.9 0.00 0.02 0.02 91 1013.8
20260510031510 68 345 0.9 0.9 0.00 0.02 0.02 91 1013.7
20260510030015 68 240 0.0 0.9 0.00 0.02 0.02 91 1013.9
20260510024524 68 240 0.0 0.0 0.00 0.02 0.02 91 1013.8
20260510023027 68 242 0.9 3.5 0.00 0.02 0.02 91 1013.4
20260510021527 68 242 0.9 1.7 0.00 0.02 0.02 91 1012.9
20260510020012 68 120 0.0 0.9 0.00 0.02 0.02 91 1012.5
20260510014517 68 105 0.0 0.9 0.00 0.02 0.02 91 1012.1
20260510013024 68 234 0.0 0.9 0.00 0.02 0.02 91 1013.0
20260510011504 68 127 0.0 0.9 0.00 0.02 0.02 91 1012.6
20260510010009 68 127 0.0 0.9 0.00 0.02 0.02 91 1012.4
20260510004516 68 247 0.0 0.9 0.00 0.02 0.02 91 1012.4
20260510003020 68 247 0.0 1.7 0.00 0.02 0.02 91 1012.5
20260510001524 68 227 0.0 1.7 0.00 0.02 0.02 91 1012.4
20260510000007 68 224 0.0 0.9 0.00 0.02 0.02 91 1012.5
20260509234526 68 224 0.0 0.9 0.00 0.02 0.02 91 1012.9
20260509233031 68 224 0.9 1.7 0.00 0.02 0.02 91 1013.2
20260509231525 68 242 0.0 0.9 0.00 0.02 0.02 91 1012.8
20260509230024 68 98 0.0 0.9 0.00 0.02 0.02 91 1012.5
20260509224513 68 98 0.0 0.0 0.00 0.02 0.02 91 1011.8
20260509223017 68 98 0.0 0.9 0.00 0.02 0.02 91 1011.6
20260509221519 68 98 0.0 0.9 0.00 0.02 0.02 91 1012.1
20260509220027 68 291 0.0 0.9 0.00 0.02 0.02 91 1012.5
20260509214525 67 291 0.0 0.9 0.00 0.02 0.02 91 1012.4
20260509213010 68 132 0.0 3.5 0.00 0.02 0.02 91 1011.3
20260509211514 68 121 0.0 1.7 0.00 0.02 0.02 91 1011.0
20260509210025 68 117 0.9 1.7 0.00 0.02 0.02 91 1010.8
20260509204530 67 251 0.0 0.9 0.00 0.02 0.02 91 1011.3